Temperature
16 16 16 16 16 16 16 16 16 16 16 16 16 16 16 16 16 16 16 16 16 16 16 16 16 16 16 16 16 16 16 16 15 15 15 15 15 15 15 15 15 15 14
16 16 16 16 16 16 16 16 16 16 16 16 16 16 16 16 16 16 16 16 16 16 16 16 16 16 16 16 16 16 16 16 16 16 15 15 15 15 15 15 15 15 15
16 16 16 16 16 16 16 16 16 16 16 16 16 16 16 16 16 16 16 16 16 16 16 16 16 16 16 16 16 16 16 16 16 16 16 16 15 15 15 15 15 15 15
16 16 16 16 16 16 16 16 16 16 16 16 16 16 16 16 16 16 16 16 17 17 17 17 17 16 16 16 16 16 16 16 16 16 16 16 16 15 15 15 15 15 15
16 16 16 16 16 16 16 16 16 16 16 16 16 16 16 16 16 17 17 17 17 17 17 17 17 16 16 16 16 16 16 16 16 16 16 16 15 15 15 15 15 15 15
16 16 16 16 16 16 16 16 16 16 16 16 17 16 16 17 17 17 17 17 17 17 17 17 17 16 16 16 16 16 16 16 15 15 15 15 15 15 15 15 15 15 15
16 15 15 16 16 16 16 16 16 16 16 16 16 16 17 17 17 17 17 17 17 17 17 17 17 16 16 16 16 16 16 15 15 15 15 15 15 15 15 15 15 15 15
16 15 15 15 16 16 16 16 16 16 16 17 17 17 17 17 17 17 17 17 17 17 17 17 17 16 16 16 16 16 16 15 15 15 15 15 15 14 14 14 14 14 14
15 15 15 15 15 16 16 16 16 16 16 17 17 17 17 17 17 17 17 17 17 17 17 17 16 16 16 16 16 15 15 15 15 15 15 14 14 14 14 14 14 14 14
15 15 15 15 15 15 15 16 16 16 16 16 17 17 17 17 17 17 17 17 17 17 16 16 16 16 16 16 15 15 15 15 15 14 14 14 14 14 14 14 14 14 14
15 15 15 15 15 15 15 15 16 16 16 16 17 17 17 17 17 17 17 17 17 16 16 16 16 16 16 16 15 15 15 15 14 14 14 14 14 13 13 13 13 13 13
15 15 15 15 15 15 15 15 15 16 16 16 17 17 17 17 17 17 17 16 16 16 16 16 16 16 15 15 15 15 14 14 14 14 14 14 13 13 13 13 13 13 13
15 15 15 15 15 15 15 15 15 16 16 16 16 16 16 16 16 16 16 16 16 16 16 16 15 15 15 15 15 14 14 14 14 14 14 13 13 13 13 12 12 12 12
15 15 15 15 15 15 15 15 15 15 16 16 16 16 16 16 16 16 16 16 16 16 15 15 15 15 15 14 14 14 14 14 14 14 13 13 13 13 12 12 12 12 12
15 15 15 15 15 15 15 15 15 15 16 16 16 16 16 16 16 16 16 15 15 15 15 15 15 14 14 14 14 14 14 14 13 13 13 13 13 12 12 12 12 12 12
15 15 15 15 15 15 15 15 15 15 15 15 15 15 15 15 15 15 15 15 15 15 14 14 14 14 14 14 14 13 13 13 13 13 13 13 13 12 12 12 12 12 12
15 15 15 15 15 15 15 15 15 15 15 15 15 15 15 15 15 15 14 14 14 14 14 14 14 14 14 13 13 13 13 13 13 13 13 13 13 12 12 12 12 12 12
15 15 15 15 15 15 15 15 15 15 15 15 15 15 14 14 14 14 14 14 14 14 14 14 14 13 13 13 13 13 13 13 13 13 13 13 13 13 12 12 12 12 12
14 15 15 15 15 15 16 15 15 15 15 14 14 14 14 14 14 14 14 14 14 14 14 13 13 13 13 13 13 13 13 13 13 13 13 13 13 13 12 12 12 11 11
14 14 14 15 15 15 15 15 15 14 14 14 14 14 14 14 14 14 14 13 13 13 13 13 13 13 13 13 13 13 13 13 13 13 13 13 13 12 12 11 11 11 11
14 14 14 14 15 15 15 15 15 15 14 14 14 14 14 14 14 13 13 13 13 13 13 13 13 13 13 13 13 13 13 13 13 13 12 12 12 12 11 11 11 11 11
14 14 14 14 14 14 15 15 14 14 14 14 14 14 14 14 13 13 13 13 13 13 13 13 13 13 13 12 12 12 12 12 12 12 12 11 11 11 11 11 11 10 10
14 14 14 14 14 14 14 14 14 14 14 14 14 14 14 13 13 13 13 13 13 13 13 13 13 12 12 12 12 11 11 11 11 10 10 10 10 10 10 10 10 10 9
14 14 14 14 14 14 14 14 14 14 14 14 14 14 14 14 13 13 13 13 13 13 13 13 12 12 12 12 11 11 11 10 9 9 9 9 9 9 9 9 9 9 9
15 15 14 14 14 14 14 14 13 13 14 14 14 14 14 14 14 13 13 13 13 13 12 12 12 12 12 11 11 11 10 10 9 8 8 9 8 8 8 8 8 8 8
15 14 14 14 14 14 14 14 14 14 14 14 14 14 13 13 13 13 13 13 13 12 12 12 12 12 11 11 11 10 10 9 9 8 7 7 7 7 7 7 7 7 7
Wind_Speed
8 13 21 20 19 17 16 15 15 15 15 15 17 18 19 20 20 20 19 19 19 19 19 19 19 19 18 18 17 17 17 16 16 16 16 16 15 15 15 14 13 13 15
11 17 21 20 19 18 17 16 15 15 15 15 17 18 19 19 20 20 19 19 19 19 18 18 18 17 17 16 15 15 15 15 14 14 14 13 14 14 14 13 13 12 13
14 17 21 20 19 18 17 17 16 15 15 16 17 18 19 19 19 19 19 18 18 18 18 17 17 16 15 14 14 13 13 13 13 12 12 11 12 13 13 13 13 13 12
14 17 19 20 19 18 18 17 16 16 16 16 17 17 18 19 19 18 18 18 18 17 17 16 16 15 14 13 13 12 12 11 11 11 11 10 10 12 13 12 12 12 12
12 15 19 20 19 19 18 17 17 16 16 16 17 17 17 18 18 18 17 17 17 16 16 15 14 13 12 12 12 12 11 11 11 10 10 9 9 11 11 12 12 11 11
10 15 19 20 19 19 18 17 17 17 16 16 17 17 17 17 17 17 16 16 15 15 14 14 13 12 12 11 11 11 11 10 9 8 7 7 7 9 10 10 10 10 10
10 14 18 19 19 18 18 17 17 17 17 16 17 17 17 16 16 16 15 15 14 14 13 12 11 11 10 10 10 10 9 8 7 6 5 5 5 7 8 8 9 9 9
11 12 16 19 18 18 18 17 17 17 17 16 16 16 16 16 15 15 14 13 13 12 11 10 10 9 9 8 8 7 6 5 5 4 3 2 3 5 6 6 6 7 8
10 10 11 15 16 17 17 17 16 16 16 16 16 15 15 15 15 14 13 12 11 10 9 9 8 7 7 6 6 5 4 3 3 1 1 1 1 2 3 4 4 5 5
9 9 9 12 12 13 14 16 16 15 15 15 15 15 14 14 13 12 11 10 9 8 7 6 5 5 5 5 4 3 2 2 1 1 2 3 3 1 1 1 2 3 3
10 8 9 9 10 11 12 14 15 15 15 15 14 14 13 11 10 9 9 8 7 6 5 4 3 3 3 4 4 3 2 1 1 3 4 5 5 4 3 2 1 0 0
10 9 9 9 9 10 10 11 12 12 12 13 13 12 11 9 8 7 7 6 5 4 3 2 2 2 3 3 3 3 2 2 3 4 6 7 7 6 5 4 4 3 3
10 9 9 9 9 9 7 9 9 9 10 11 12 11 10 8 6 5 4 4 3 2 1 1 2 2 2 3 3 4 4 4 5 6 7 8 8 9 8 7 6 6 6
10 10 10 10 9 9 9 8 8 8 8 8 10 11 9 6 4 4 4 3 3 2 1 1 1 2 3 4 4 4 5 5 6 7 8 9 9 10 10 9 9 8 8
10 10 11 10 10 9 8 7 8 7 8 9 10 10 10 6 4 4 4 4 4 3 3 2 2 2 3 4 4 4 4 5 6 7 9 10 10 10 11 11 11 9 9
12 12 11 11 11 9 7 6 7 8 9 9 9 11 12 9 7 5 4 4 4 5 4 3 3 2 2 3 3 4 5 6 7 8 8 9 10 10 10 11 11 9 8
12 11 11 12 11 11 9 8 8 9 10 8 9 11 12 11 9 7 4 3 5 5 4 3 2 2 2 2 3 4 4 5 6 8 8 8 9 9 9 9 8 7 5
11 11 11 10 12 12 10 8 6 8 9 8 10 10 11 11 10 8 4 4 6 5 4 2 2 1 2 2 3 3 3 4 6 7 7 7 7 7 6 5 4 3 3
12 12 12 10 11 11 10 7 6 6 7 8 9 9 10 11 11 9 5 5 5 4 3 2 2 2 2 2 3 3 3 3 4 5 5 6 5 4 4 2 1 2 3
9 10 10 9 9 9 7 6 5 4 4 5 7 8 10 10 10 9 5 5 5 3 2 2 2 1 1 2 3 3 3 3 2 3 3 4 4 3 2 2 4 5 7
9 9 10 9 8 7 6 6 6 5 4 3 4 6 8 9 9 8 4 4 4 3 3 3 2 1 1 0 1 3 3 2 3 3 3 4 5 6 6 6 5 6 6
9 10 10 10 9 9 7 6 4 4 4 3 3 4 6 7 7 7 5 4 4 3 3 3 2 2 1 1 1 1 3 4 3 4 4 5 5 7 7 8 8 7 7
9 11 10 10 10 9 8 5 4 3 3 3 3 3 4 7 7 6 6 5 4 4 3 3 2 3 2 0 1 1 1 3 3 2 4 5 5 5 5 7 8 8 7
8 8 9 10 10 11 10 9 9 7 7 7 5 5 4 5 6 7 6 6 4 3 4 3 2 2 2 1 0 1 2 2 2 3 1 3 5 5 5 5 6 7 8
6 6 7 8 9 9 10 10 10 8 6 4 4 6 5 4 5 6 6 5 4 3 3 3 3 2 2 2 2 1 1 1 3 3 4 1 1 3 3 4 4 6 7
4 5 5 6 7 7 9 10 11 11 9 8 7 7 5 4 3 5 6 5 5 4 4 3 3 3 2 1 1 1 1 2 2 3 4 3 2 1 2 2 3 4 6
Wind_Direction
160 157 153 145 141 137 134 128 123 118 117 116 118 121 122 121 120 119 116 114 112 111 108 107 105 102 97 93 88 84 81 79 74 70 68 69 71 71 69 66 63 59 59
147 153 150 146 143 140 136 129 125 120 118 117 118 121 122 120 120 119 117 115 113 112 111 109 107 102 98 95 91 89 86 82 79 74 67 65 68 68 66 65 64 63 60
144 149 147 146 144 141 137 132 128 125 122 120 119 120 121 120 119 117 116 114 113 112 112 110 106 102 98 96 94 92 89 86 82 75 67 61 65 67 65 65 64 61 60
143 145 146 145 145 143 139 135 132 130 127 124 122 120 120 120 119 118 116 115 114 113 112 109 106 102 98 96 95 93 91 89 84 76 67 61 60 66 64 64 64 61 57
138 141 146 145 146 144 143 139 136 133 130 127 125 123 121 121 120 119 117 116 115 114 113 110 106 102 97 95 96 94 93 91 85 79 69 61 58 66 64 62 61 59 57
134 139 146 146 146 146 146 143 140 137 134 131 129 127 125 124 122 120 118 118 117 117 116 112 107 101 96 96 97 96 94 93 88 80 69 59 57 66 67 66 62 60 57
137 140 147 147 148 149 148 146 143 142 138 135 134 131 129 127 125 124 123 122 122 121 119 114 108 101 95 95 98 96 95 94 91 85 72 56 56 65 67 67 65 62 59
142 140 147 149 149 150 150 148 146 146 143 140 138 136 134 133 131 130 129 128 126 125 121 116 108 101 94 93 94 93 95 95 91 79 68 46 53 60 66 66 65 63 60
140 138 141 146 149 151 151 148 149 149 146 144 141 139 138 138 137 137 135 133 131 128 124 118 110 101 93 87 86 84 83 93 105 78 20 318 352 49 63 67 65 64 60
143 141 138 141 144 146 150 149 150 149 147 146 143 139 139 140 140 140 140 139 136 132 126 119 110 96 81 71 66 65 72 85 103 288 283 275 279 297 23 64 64 62 61
154 147 143 142 142 143 148 152 150 150 149 145 144 143 140 140 141 141 144 143 140 138 131 121 104 82 66 52 41 39 49 20 301 284 278 274 274 272 270 266 266 305 13
166 161 155 151 149 147 150 150 149 150 149 147 147 147 146 146 146 146 151 151 150 145 135 115 72 50 44 25 9 10 355 308 287 280 279 276 275 273 271 261 253 252 254
174 169 167 162 158 154 149 151 152 151 149 151 155 156 153 150 148 147 151 159 161 160 140 41 23 13 360 344 335 332 319 302 285 283 282 281 277 275 275 268 259 253 252
180 181 173 167 165 163 158 159 159 160 161 162 166 166 161 158 161 166 174 184 188 194 206 263 301 312 316 315 311 308 305 296 286 284 286 286 282 276 276 275 268 261 258
183 190 181 173 170 169 163 164 170 173 174 174 174 177 176 173 177 183 191 200 210 215 219 231 257 292 306 310 306 296 294 295 291 288 287 290 286 280 277 278 277 272 269
189 194 186 178 174 171 169 168 172 178 178 178 184 189 189 189 188 189 194 204 214 218 221 223 235 265 284 292 297 293 286 288 287 286 286 289 289 283 278 277 280 281 284
188 191 191 185 177 174 175 176 177 181 180 184 192 196 197 199 196 191 189 203 218 216 212 213 230 243 265 271 281 285 281 283 284 285 286 285 287 287 283 277 278 287 300
184 188 191 191 184 180 178 176 177 180 182 188 192 195 199 201 197 185 184 203 210 198 190 185 191 212 250 269 282 288 286 288 288 289 290 289 287 286 291 286 284 297 321
187 188 187 189 189 186 177 172 173 177 183 189 188 190 196 196 192 183 185 197 188 173 173 182 175 185 233 271 279 283 287 287 295 308 307 304 298 290 290 323 36 57 62
188 186 187 191 191 183 175 163 163 170 183 186 188 189 189 189 186 180 178 180 171 156 162 165 174 179 220 268 289 295 292 301 327 335 330 346 3 15 37 64 73 72 71
188 187 188 187 187 180 180 177 178 186 183 185 188 185 186 183 180 175 168 161 158 163 166 163 156 171 235 272 331 322 323 351 25 16 17 27 33 45 60 63 66 69 63
191 192 192 193 189 190 193 183 177 167 160 172 164 161 175 179 179 174 163 164 161 154 145 145 147 157 191 107 128 336 330 341 15 33 32 39 34 45 54 55 59 59 59
198 196 198 197 196 195 190 167 141 120 115 150 166 167 175 175 173 168 161 151 152 151 156 157 159 163 183 182 145 180 237 276 312 356 38 40 39 44 45 50 52 52 53
210 199 194 194 196 198 188 181 180 184 197 199 184 174 169 162 156 156 148 144 146 147 146 147 141 143 150 190 278 261 226 214 260 303 344 39 45 44 38 44 46 47 49
205 193 191 194 196 196 192 189 189 197 203 187 162 159 158 148 143 141 141 138 135 133 134 128 125 124 146 173 191 212 240 238 229 241 271 292 28 42 40 42 47 45 43
192 182 179 186 199 195 194 191 193 195 192 183 180 177 168 157 142 137 131 130 129 133 137 133 126 130 136 150 177 203 215 232 234 238 256 256 248 140 61 44 47 45 45
Height
1509 1513 1516 1519 1521 1523 1525 1526 1528 1529 1531 1532 1534 1535 1537 1539 1541 1543 1545 1546 1547 1549 1549 1550 1551 1552 1552 1552 1553 1553 1553 1553 1553 1553 1553 1553 1552 1552 1552 1551 1551 1551 1550
1507 1512 1516 1519 1521 1523 1525 1527 1528 1530 1532 1533 1535 1537 1539 1541 1543 1544 1546 1547 1549 1550 1551 1552 1553 1553 1554 1554 1555 1555 1555 1555 1555 1555 1555 1555 1555 1554 1554 1553 1553 1552 1552
1507 1512 1516 1519 1521 1523 1525 1527 1529 1531 1533 1534 1536 1538 1540 1542 1544 1546 1547 1549 1550 1551 1552 1553 1554 1555 1556 1556 1557 1557 1557 1557 1557 1557 1557 1557 1556 1556 1556 1555 1555 1554 1553
1508 1512 1516 1519 1521 1524 1526 1528 1530 1532 1534 1536 1538 1540 1542 1543 1545 1547 1549 1550 1551 1553 1554 1555 1556 1557 1558 1558 1559 1559 1559 1559 1559 1559 1559 1559 1558 1558 1557 1557 1556 1556 1555
1509 1513 1516 1519 1522 1524 1526 1528 1530 1533 1535 1537 1539 1541 1543 1545 1546 1548 1550 1551 1553 1554 1555 1556 1557 1558 1559 1560 1561 1561 1561 1561 1561 1561 1561 1560 1560 1560 1559 1558 1558 1557 1556
1509 1513 1516 1519 1522 1524 1527 1529 1531 1533 1535 1538 1540 1542 1544 1546 1547 1549 1551 1553 1554 1555 1557 1558 1559 1560 1561 1562 1562 1562 1563 1563 1563 1562 1562 1562 1561 1561 1560 1560 1559 1558 1558
1510 1514 1517 1520 1522 1525 1527 1530 1532 1534 1536 1539 1541 1543 1545 1547 1548 1550 1552 1554 1555 1557 1558 1559 1560 1561 1562 1563 1563 1563 1564 1564 1564 1564 1563 1563 1562 1562 1561 1561 1560 1559 1558
1511 1514 1517 1520 1523 1525 1528 1530 1532 1535 1537 1539 1541 1543 1546 1548 1549 1551 1553 1555 1556 1558 1559 1560 1561 1562 1563 1563 1564 1564 1564 1564 1565 1564 1564 1564 1563 1563 1562 1561 1561 1560 1559
1512 1514 1517 1520 1523 1526 1528 1531 1533 1535 1538 1540 1542 1544 1546 1548 1550 1552 1554 1556 1557 1559 1560 1561 1562 1563 1563 1564 1564 1565 1565 1565 1565 1565 1564 1564 1564 1563 1562 1562 1561 1560 1559
1512 1515 1518 1520 1523 1526 1529 1531 1533 1536 1538 1540 1543 1545 1547 1549 1551 1553 1555 1556 1558 1559 1560 1561 1562 1563 1564 1564 1564 1565 1565 1565 1565 1565 1564 1564 1564 1563 1563 1562 1561 1560 1559
1512 1515 1518 1520 1523 1526 1529 1531 1534 1536 1538 1541 1543 1545 1548 1550 1552 1553 1555 1557 1558 1559 1560 1561 1562 1563 1563 1564 1564 1564 1564 1565 1564 1564 1564 1564 1563 1563 1562 1562 1561 1560 1559
1510 1514 1517 1520 1523 1526 1528 1531 1533 1536 1538 1541 1543 1546 1548 1550 1552 1553 1555 1556 1558 1559 1560 1561 1562 1562 1563 1563 1564 1564 1564 1564 1564 1563 1563 1563 1562 1562 1561 1561 1560 1559 1558
1508 1512 1516 1519 1522 1525 1528 1531 1533 1536 1538 1541 1543 1546 1548 1550 1551 1553 1555 1556 1557 1558 1559 1560 1561 1562 1562 1563 1563 1563 1563 1563 1563 1562 1562 1562 1561 1561 1560 1560 1559 1558 1557
1507 1511 1514 1518 1521 1524 1527 1530 1532 1535 1538 1540 1543 1545 1547 1549 1551 1552 1554 1555 1556 1558 1559 1559 1560 1561 1561 1562 1562 1562 1562 1562 1561 1561 1560 1560 1559 1559 1558 1558 1557 1557 1556
1504 1508 1513 1516 1519 1523 1526 1529 1532 1534 1537 1539 1542 1544 1546 1548 1550 1552 1553 1554 1555 1556 1557 1558 1559 1559 1560 1560 1560 1560 1560 1560 1559 1559 1558 1558 1557 1557 1556 1556 1555 1555 1554
1501 1506 1510 1513 1518 1521 1524 1527 1530 1533 1536 1538 1541 1543 1545 1547 1549 1550 1552 1553 1554 1555 1556 1557 1557 1558 1558 1558 1558 1558 1558 1557 1557 1556 1555 1555 1554 1554 1553 1553 1553 1552 1552
1499 1503 1507 1511 1515 1519 1522 1525 1528 1531 1534 1537 1539 1542 1544 1546 1548 1549 1550 1552 1553 1553 1554 1555 1555 1556 1556 1556 1556 1556 1555 1555 1554 1553 1552 1552 1551 1551 1550 1550 1550 1550 1549
1496 1500 1505 1509 1512 1515 1519 1523 1526 1529 1532 1535 1537 1540 1542 1544 1546 1547 1549 1550 1551 1551 1552 1553 1553 1553 1554 1554 1553 1553 1552 1552 1551 1550 1549 1548 1547 1547 1547 1547 1546 1546 1546
1493 1497 1502 1506 1510 1513 1517 1520 1524 1527 1530 1532 1535 1537 1540 1542 1544 1545 1546 1548 1549 1549 1550 1550 1551 1551 1551 1551 1551 1550 1549 1548 1547 1546 1545 1544 1543 1543 1543 1543 1543 1543 1543
1491 1495 1499 1503 1507 1510 1514 1516 1521 1524 1527 1529 1532 1535 1537 1539 1541 1543 1544 1545 1546 1547 1547 1548 1548 1548 1548 1548 1547 1546 1546 1545 1543 1542 1541 1540 1540 1539 1540 1540 1540 1541 1541
1488 1492 1496 1500 1503 1507 1510 1512 1516 1519 1523 1526 1529 1531 1534 1536 1538 1540 1541 1542 1543 1544 1545 1545 1546 1546 1545 1545 1544 1543 1542 1541 1539 1539 1538 1537 1537 1537 1537 1537 1537 1538 1538
1486 1489 1493 1497 1500 1504 1507 1509 1513 1516 1519 1523 1525 1528 1530 1533 1535 1536 1538 1539 1540 1541 1542 1542 1542 1542 1542 1542 1541 1540 1539 1538 1536 1536 1535 1535 1535 1535 1535 1535 1535 1535 1535
1483 1486 1489 1492 1496 1500 1503 1507 1510 1512 1515 1518 1521 1524 1527 1529 1531 1533 1534 1536 1537 1538 1538 1539 1539 1539 1539 1539 1538 1539 1537 1535 1534 1533 1533 1532 1532 1532 1532 1532 1532 1532 1532
1480 1483 1486 1489 1493 1496 1499 1502 1505 1507 1511 1514 1517 1520 1523 1525 1527 1529 1530 1532 1533 1534 1535 1535 1535 1535 1535 1535 1535 1534 1535 1533 1533 1531 1530 1529 1529 1529 1529 1529 1529 1529 1529
1477 1480 1483 1486 1489 1492 1494 1497 1500 1504 1507 1510 1513 1516 1518 1521 1523 1525 1526 1527 1529 1530 1531 1531 1531 1531 1531 1531 1531 1530 1530 1529 1529 1528 1526 1526 1526 1525 1525 1525 1525 1525 1525
1474 1477 1479 1482 1485 1488 1491 1494 1497 1500 1503 1505 1508 1511 1513 1516 1518 1520 1522 1523 1524 1525 1526 1527 1527 1527 1527 1527 1526 1526 1526 1525 1524 1524 1523 1522 1521 1521 1521 1521 1521 1521 1521